Regional Weather Roundup
Issued by NWS

Home | Current Version | Previous Version | Text Only | Print | Product List | Glossary Off
Versions: 1 2 3 4 5 6 7 8 9 10 11 12 13 14 15 16 17 18 19 20 21 22 23 24 25 26 27 28 29 30 31 32 33 34 35 36 37 38 39 40 41 42 43 44 45 46 47 48 49 50

000
ASUS43 KLSX 272107
RWRMO

WEATHER SUMMARY FOR MISSOURI
NATIONAL WEATHER SERVICE SPRINGFIELD MO
400 PM CDT THU AUG 27 2015

NOTE: "FAIR" INDICATES FEW OR NO CLOUDS BELOW 12,000 FEET WITH NO
       SIGNIFICANT WEATHER AND/OR OBSTRUCTIONS TO VISIBILITY.
       CURRENT SKY AND/OR WEATHER CONDITIONS ARE NOT AVAILABLE FOR
       CHILLICOTHE AND FARMINGTON.

MOZ001>031-035>038-043-044-053-054-272200-
...NORTHERN AND WESTERN MISSOURI...

CITY           SKY/WX    TMP DP  RH WIND       PRES   REMARKS
KANSAS CTY INT PTSUNNY   73  63  70 S15       30.03F
KANSAS C DTWN  FAIR      73  66  78 CALM      30.02F
LEE`S SUMMIT   FAIR      69  63  81 S10G18    30.05F
ST JOSEPH      FAIR      79  67  66 S13       30.01F
CHILLICOTHE      N/A     77  62  59 S8        30.06F
KIRKSVILLE     FAIR      75  61  61 S10       30.07F

$$
MOZ066>068-077>081-088>096-101>105-272200-
...SOUTHWEST MISSOURI...

CITY           SKY/WX    TMP DP  RH WIND       PRES   REMARKS
SPRINGFIELD    FAIR      78  63  59 S5        30.11S
JOPLIN         FAIR      80  67  64 N7        30.08F

$$
MOZ032>034-039>042-045>050-055>058-069>072-272200-
...CENTRAL MISSOURI...

CITY           SKY/WX    TMP DP  RH WIND       PRES   REMARKS
COLUMBIA       FAIR      75  61  61 E3        30.12F
JEFFERSON CITY FAIR      77  59  53 NE3       30.10F
ROLLA          FAIR      77  57  50 VRB3      30.12S
SEDALIA        FAIR      75  64  68 S7        30.11F
WHITEMAN AFB   CLOUDY    71  62  74 S9        30.06F
WARRENSBURG    LGT RAIN  68  61  77 SE3       30.08F
OSAGE BEACH    FAIR      77  57  50 CALM      30.13F

$$
MOZ051-052-059>065-272200-
...EAST CENTRAL MISSOURI...

CITY           SKY/WX    TMP DP  RH WIND       PRES   REMARKS
ST LOUIS INTL  CLOUDY    77  55  46 N5        30.13S
SPIRIT OF STL  PTSUNNY   77  58  51 N3        30.11F
ST CHARLES     FAIR      77  59  53 N6        30.12F

$$
MOZ072>076-082>087-097>100-106>115-272200-
...SOUTH CENTRAL AND SOUTHEAST MISSOURI...

CITY           SKY/WX    TMP DP  RH WIND       PRES   REMARKS
CAPE GIRARDEAU FAIR      81  56  42 VRB5      30.10F
FARMINGTON     FAIR      77  57  50 SE5       30.15S
POPLAR BLUFF   FAIR      81  57  43 E5        30.09F
WEST PLAINS    FAIR      78  55  44 E3        30.13F

$$



USA.gov is the U.S. government's official web portal to all federal, state and local government web resources and services.